Location: Unspecified
(0.0000°N, 0.0000°E)
Time: 09:09:08
(UTC+00:00)

SR - All Passes

Search period start: 08 May 2026 00:00
Search period end: 18 May 2026 00:00
Orbit: 568 x 851 km, 66.7° (Epoch: 7 May)

Date Brightness Start Highest point End Pass type
(mag) Time Alt. Az. Time Alt. Az. Time Alt. Az.
8 May - 07:28:58 10° SSW 07:33:09 65° WNW 07:37:34 10° NNE daylight
8 May - 18:11:36 10° NNE 18:15:35 19° ENE 18:19:26 10° ESE visible
8 May - 19:52:07 10° NW 19:57:04 31° WSW 20:01:48 10° S visible
9 May - 06:34:22 10° S 06:38:10 32° ESE 06:42:08 10° NE daylight
9 May - 18:56:21 10° NNW 19:02:04 88° WSW 19:07:29 10° SSE visible
10 May - 07:20:39 10° SW 07:24:29 33° WNW 07:28:31 10° N daylight
10 May - 18:01:56 10° N 18:06:59 32° ENE 18:11:49 10° SE daylight
10 May - 19:44:38 10° WNW 19:48:23 18° WSW 19:52:01 10° SSW visible
11 May - 06:25:15 10° SSW 06:29:27 65° ESE 06:33:54 10° NNE daylight
11 May - 17:10:10 10° NE 17:11:49 11° ENE 17:13:27 10° E daylight
11 May - 18:47:54 10° NW 18:53:24 51° WSW 18:58:37 10° S visible
12 May - 05:31:35 10° SSE 05:34:30 18° ESE 05:37:30 10° ENE visible
12 May - 07:12:55 10° WSW 07:15:51 18° WNW 07:18:53 10° NNW daylight
12 May - 17:52:48 10° N 17:58:22 55° ENE 18:03:39 10° SSE daylight
13 May - 06:16:32 10° SSW 06:20:45 63° WNW 06:25:12 10° N daylight
13 May - 16:59:13 10° NNE 17:03:14 20° ENE 17:07:08 10° ESE daylight
13 May - 18:39:51 10° NW 18:44:43 30° WSW 18:49:22 10° S visible
14 May - 05:21:55 10° S 05:25:46 34° ESE 05:29:49 10° NE visible
14 May - 17:44:02 10° NNW 17:49:43 86° WSW 17:55:06 10° SSE daylight
15 May - 06:08:14 10° SW 06:12:05 32° WNW 06:16:08 10° N daylight
15 May - 16:49:35 10° N 16:54:38 33° ENE 16:59:28 10° SE daylight
15 May - 18:32:26 10° WNW 18:36:02 17° WSW 18:39:31 10° SSW visible
16 May - 05:12:48 10° SSW 05:17:02 68° ESE 05:21:32 10° NNE visible
16 May - 15:57:38 10° NE 15:59:27 11° ENE 16:01:15 10° E daylight
16 May - 17:35:36 10° NW 17:41:02 50° WSW 17:46:12 10° S daylight
17 May - 04:19:04 10° SSE 04:22:05 19° ESE 04:25:12 10° ENE visible
17 May - 06:00:32 10° WSW 06:03:26 17° WNW 06:06:27 10° NNW daylight
17 May - 16:40:27 10° N 16:46:00 57° ENE 16:51:16 10° SSE daylight
